Wind_Speed
34 35 38 40 42 40 39 38 37 38 40 40 38 34 33 32 31 30 30 31 33 34 35 34 33 32 32 31 28 27 26 25 24 22 22 22 24 26 26 26 26 25 24
40 40 41 41 42 43 41 39 38 38 39 40 37 34 31 29 28 27 27 28 29 30 28 27 25 25 25 26 27 27 27 26 24 23 22 23 24 25 24 22 21 20 20
50 46 44 43 42 42 41 39 38 38 38 38 37 35 32 28 25 24 23 23 24 23 23 22 23 25 25 26 27 28 27 25 24 23 22 21 21 20 18 18 18 18 19
58 54 49 45 42 41 41 40 40 39 38 37 35 34 32 29 25 23 21 19 19 19 21 22 24 26 27 28 28 28 26 23 22 21 20 18 16 16 16 16 18 19 20
61 59 55 50 45 44 44 44 43 41 40 37 34 33 31 28 24 21 19 17 17 19 20 22 24 25 25 26 25 25 24 21 19 18 18 17 16 16 16 16 17 17 19
62 61 59 55 51 50 49 48 46 44 41 38 33 32 29 26 22 19 17 15 17 20 21 21 23 23 22 19 17 17 17 17 18 18 17 17 16 15 14 14 15 17 19
69 68 65 62 59 56 52 48 46 45 42 39 33 30 28 25 22 18 17 15 16 19 21 22 20 19 18 17 16 17 17 18 17 16 15 13 12 11 12 13 15 16 18
75 73 70 66 62 57 52 47 46 45 42 39 34 30 28 25 22 20 18 17 16 17 19 19 18 17 16 16 17 17 17 16 14 12 11 10 9 9 10 11 13 15 17
79 76 72 68 62 55 50 47 46 45 42 39 34 30 28 26 23 20 19 19 19 18 17 17 17 17 17 17 16 16 15 13 11 11 10 9 8 8 9 11 13 15 17
75 71 66 62 56 51 47 46 47 46 43 40 36 31 29 27 24 22 21 21 19 18 17 17 17 18 17 17 17 16 14 13 12 11 11 9 8 8 9 10 11 13 15
61 56 51 48 46 44 44 45 46 45 44 42 39 33 30 28 26 23 22 21 18 16 15 15 16 18 18 17 16 15 15 14 14 13 12 10 8 7 7 9 11 14 15
43 40 39 40 40 40 41 42 45 47 45 43 41 36 32 29 27 24 22 19 18 16 14 13 15 17 18 16 15 14 15 15 14 13 12 10 8 5 6 9 11 12 13
35 34 35 38 41 42 43 44 46 50 47 42 41 37 32 29 27 23 19 18 19 18 15 14 15 17 16 14 14 14 15 15 14 13 11 9 7 6 8 9 9 11 13
35 35 37 39 42 43 45 45 47 52 51 43 41 38 33 29 26 21 17 17 20 19 17 16 16 16 15 13 14 14 14 15 14 12 10 9 8 8 9 8 8 9 11
38 37 39 40 40 40 40 41 47 54 54 47 42 37 32 28 25 22 19 20 22 21 19 16 14 14 14 15 15 13 13 12 12 11 10 10 9 9 9 9 7 7 10
42 39 38 37 37 35 32 34 45 53 56 48 42 37 33 31 28 24 22 22 23 22 19 16 14 13 13 13 12 12 12 13 13 13 12 12 10 9 9 8 7 8 11
43 39 36 35 32 29 24 28 42 51 51 48 44 39 35 32 28 26 24 23 22 21 19 16 15 14 13 12 11 11 13 14 15 14 13 12 9 8 8 7 7 9 11
37 34 32 30 27 20 18 28 41 44 46 48 44 41 37 33 30 27 24 22 20 19 18 17 16 16 14 13 12 12 14 15 15 15 14 12 10 9 9 9 8 10 12
29 27 25 24 20 17 22 32 37 42 47 47 43 40 36 34 32 28 24 21 19 18 17 17 17 16 15 14 14 14 14 15 16 15 15 14 13 13 13 13 14 15 16
22 22 21 19 17 20 28 33 36 44 47 46 42 38 34 32 29 25 22 20 17 15 14 14 14 14 14 13 13 14 14 15 17 17 17 17 17 18 18 18 19 20 20
19 19 19 18 19 25 29 33 40 45 46 44 39 34 31 29 28 26 23 20 17 15 13 12 12 12 13 13 13 14 16 17 18 19 19 19 20 20 21 22 23 23 23
17 18 19 20 24 28 31 35 40 43 44 41 37 33 31 31 30 27 24 20 17 15 13 12 12 13 14 15 15 16 18 19 20 20 20 20 21 21 23 23 23 22 22
17 19 21 24 29 32 33 35 39 41 41 38 35 31 29 29 28 27 24 21 18 15 14 14 14 15 16 17 17 17 18 20 21 21 20 20 21 22 24 24 23 22 21
19 22 25 30 33 34 33 34 36 38 39 37 33 29 27 27 27 25 23 20 17 16 15 16 16 17 18 18 19 18 19 19 19 19 20 20 21 22 24 24 23 22 22
24 28 33 35 35 33 33 34 34 36 36 34 30 27 26 25 23 21 19 17 16 15 16 17 17 18 18 19 18 18 17 17 18 18 19 20 21 22 22 22 22 21 21
34 36 36 35 33 31 30 30 31 33 33 30 27 24 22 20 19 18 17 16 14 15 15 16 16 16 15 15 15 15 15 15 16 17 18 19 20 21 21 21 21 21 21
Wind_Direction
307 312 312 310 310 311 311 312 312 317 324 326 321 315 308 300 292 286 281 276 272 270 269 268 266 262 257 254 246 236 228 225 230 234 236 241 245 252 261 265 263 259 254
303 307 308 306 304 305 306 308 308 311 319 325 323 320 315 307 298 292 288 281 275 270 265 261 256 250 245 238 232 228 223 221 227 238 246 252 255 259 263 262 255 253 252
299 300 302 302 301 300 301 303 305 308 314 321 320 319 319 315 306 301 296 286 274 263 252 246 246 240 235 230 227 226 223 224 232 244 251 251 252 251 247 246 247 248 247
294 293 295 297 298 298 299 300 300 304 308 314 315 313 315 315 311 309 303 288 267 253 243 241 238 231 225 220 220 224 225 226 236 242 241 237 236 236 239 246 250 252 255
289 288 290 293 294 294 296 297 296 297 301 305 308 307 307 310 310 309 303 283 259 244 236 234 230 223 218 211 213 219 223 227 228 224 222 227 234 240 246 253 259 263 266
282 283 286 288 290 291 291 291 290 289 292 295 299 299 299 302 303 302 300 280 253 241 237 233 229 225 221 215 210 209 211 214 213 216 222 230 238 246 254 262 267 271 273
283 285 288 290 290 288 286 285 283 281 281 284 288 290 290 293 294 290 288 282 263 250 245 240 234 231 226 220 211 207 209 211 213 219 225 230 238 250 263 271 273 274 273
284 283 284 285 285 282 280 276 273 271 271 274 277 279 281 283 283 279 275 273 269 259 251 246 244 239 230 223 218 214 211 208 205 207 216 228 243 257 265 271 276 280 282
281 281 281 281 280 277 272 267 263 261 261 264 267 269 272 274 273 272 271 267 263 256 249 243 238 234 232 227 221 215 209 202 197 203 214 224 238 254 268 276 281 286 289
280 279 279 277 274 268 262 256 253 252 251 254 258 260 263 265 264 263 266 263 258 251 243 236 231 227 223 221 219 214 208 203 200 204 211 221 235 254 273 286 295 302 305
278 275 271 266 261 256 252 247 242 243 243 247 250 253 255 257 256 256 260 258 248 238 230 224 220 217 214 211 206 200 198 198 200 206 212 218 228 252 287 309 319 320 321
273 268 262 259 256 254 250 246 239 234 236 241 244 246 248 249 250 250 252 245 228 219 213 207 200 192 184 183 185 188 194 200 207 213 218 223 234 264 305 324 330 332 333
279 274 269 265 263 260 256 252 242 231 226 230 238 241 239 240 242 242 238 225 209 205 205 199 191 183 181 187 191 196 205 213 218 223 227 234 247 272 298 317 331 339 341
280 277 275 273 269 264 259 252 240 228 221 219 229 232 227 229 231 226 215 203 195 196 197 193 189 190 198 205 204 208 218 221 223 229 235 243 254 271 289 302 321 339 344
282 281 281 278 273 269 261 250 231 220 212 208 216 217 214 217 216 206 195 188 186 189 192 189 192 199 205 206 209 220 225 223 227 235 239 245 255 272 286 289 303 333 343
284 283 282 276 274 271 262 242 219 210 203 200 201 199 200 204 204 197 190 185 186 190 194 195 195 194 198 204 213 224 228 227 232 239 244 252 260 272 281 282 298 330 340
282 280 277 273 272 269 250 223 207 200 198 191 190 189 194 198 197 194 190 187 187 192 198 202 202 202 206 214 222 229 234 234 238 245 249 252 253 256 263 274 305 329 334
274 271 268 267 266 254 224 199 192 191 187 184 186 188 192 193 191 191 189 188 191 198 203 207 210 214 220 228 230 231 234 237 243 247 250 248 246 249 256 271 297 319 325
261 256 254 255 251 228 198 184 182 182 180 180 183 187 191 188 186 185 185 187 192 197 203 209 215 221 228 231 230 230 231 239 246 249 250 249 249 253 263 275 288 303 313
240 234 235 235 227 203 189 181 175 174 175 177 181 186 189 185 180 179 184 187 191 195 201 206 212 219 224 228 230 234 237 243 250 253 252 251 254 260 268 277 283 291 301
215 214 214 212 201 188 181 173 168 170 173 177 180 184 183 178 175 178 184 189 191 195 199 206 215 224 232 237 240 244 248 253 258 259 257 256 260 268 275 280 282 285 293
198 197 194 191 185 179 173 164 162 167 172 176 181 184 184 181 180 182 185 190 192 196 203 214 226 237 245 249 251 253 256 261 264 265 262 262 267 275 281 285 286 287 292
184 182 178 175 172 170 165 158 158 165 172 176 180 184 186 185 184 185 188 192 195 203 214 225 234 243 249 252 252 254 257 263 266 265 263 266 272 279 284 288 290 291 294
169 166 163 161 162 163 159 157 160 167 173 176 178 181 184 186 187 188 191 197 205 215 225 232 239 245 249 250 250 251 256 263 265 264 265 271 277 282 286 287 288 290 293
148 148 149 153 158 159 157 160 165 170 172 174 176 179 182 184 188 193 200 205 211 219 226 233 240 244 246 246 247 251 257 263 265 268 272 277 282 286 286 284 286 289 292
136 138 143 151 156 158 160 164 168 170 172 172 174 177 182 188 194 198 199 201 209 222 232 237 239 240 241 242 246 252 259 265 270 275 280 283 286 288 287 286 288 291 294
Height
5772 5769 5766 5763 5759 5756 5753 5749 5744 5740 5734 5729 5723 5717 5712 5709 5708 5707 5705 5705 5705 5705 5705 5705 5706 5706 5708 5710 5712 5715 5719 5723 5727 5730 5731 5733 5735 5736 5737 5738 5739 5741 5742
5761 5759 5757 5753 5750 5747 5744 5741 5737 5732 5727 5722 5716 5711 5706 5703 5700 5699 5697 5695 5695 5695 5695 5696 5697 5698 5700 5702 5705 5708 5712 5716 5720 5723 5726 5727 5729 5729 5730 5731 5733 5735 5737
5748 5747 5745 5742 5740 5737 5734 5732 5728 5724 5720 5716 5711 5705 5701 5697 5695 5692 5690 5688 5687 5686 5687 5689 5690 5691 5693 5696 5699 5702 5706 5710 5714 5718 5720 5721 5722 5723 5725 5726 5728 5730 5732
5734 5733 5732 5730 5729 5727 5725 5723 5720 5716 5712 5709 5705 5700 5696 5692 5689 5687 5684 5682 5681 5681 5682 5684 5685 5686 5688 5690 5694 5697 5701 5705 5709 5712 5714 5715 5717 5719 5721 5723 5724 5726 5727
5718 5717 5717 5717 5716 5715 5714 5713 5711 5708 5705 5701 5698 5694 5690 5687 5684 5682 5680 5678 5678 5678 5679 5680 5681 5683 5684 5686 5689 5693 5697 5700 5704 5707 5709 5711 5713 5715 5717 5718 5719 5720 5722
5703 5701 5700 5701 5701 5701 5701 5700 5700 5698 5695 5693 5691 5688 5685 5682 5680 5678 5677 5675 5675 5675 5676 5677 5678 5679 5681 5682 5685 5689 5692 5696 5700 5702 5704 5706 5708 5710 5712 5713 5714 5716 5717
5686 5683 5682 5682 5684 5685 5685 5686 5686 5686 5685 5684 5683 5680 5678 5677 5675 5674 5673 5672 5671 5672 5672 5673 5675 5676 5678 5680 5682 5685 5689 5692 5695 5698 5700 5702 5704 5706 5707 5709 5710 5711 5711
5665 5663 5662 5662 5664 5665 5667 5669 5671 5672 5672 5672 5673 5672 5671 5670 5669 5668 5668 5668 5668 5668 5668 5669 5671 5672 5675 5677 5680 5683 5686 5689 5692 5694 5697 5698 5700 5702 5703 5705 5705 5705 5705
5639 5638 5638 5639 5642 5644 5647 5651 5654 5656 5658 5660 5662 5662 5662 5662 5662 5661 5662 5663 5663 5663 5663 5665 5666 5669 5671 5675 5678 5680 5683 5686 5688 5691 5692 5694 5696 5698 5699 5700 5699 5699 5699
5612 5612 5613 5613 5617 5621 5625 5630 5636 5640 5644 5647 5650 5652 5653 5654 5654 5654 5655 5656 5656 5657 5658 5660 5662 5664 5667 5670 5674 5676 5679 5682 5685 5687 5689 5691 5692 5694 5694 5694 5694 5693 5691
5585 5586 5587 5588 5592 5597 5603 5609 5616 5622 5628 5633 5637 5641 5643 5645 5646 5647 5648 5649 5650 5651 5653 5655 5657 5660 5662 5666 5669 5672 5676 5679 5682 5684 5686 5688 5689 5690 5689 5689 5687 5686 5685
5562 5564 5567 5569 5573 5578 5584 5590 5596 5603 5611 5618 5623 5629 5633 5636 5638 5640 5641 5642 5644 5646 5648 5650 5653 5655 5659 5662 5666 5670 5673 5676 5679 5681 5683 5684 5684 5685 5685 5684 5683 5682 5680
5548 5550 5552 5555 5558 5561 5566 5571 5577 5585 5593 5602 5610 5617 5623 5626 5630 5632 5633 5635 5638 5642 5644 5647 5650 5653 5656 5660 5664 5667 5670 5673 5675 5677 5678 5679 5680 5681 5681 5680 5679 5678 5676
5536 5536 5537 5538 5540 5541 5545 5550 5556 5565 5574 5586 5597 5605 5612 5617 5622 5625 5627 5629 5633 5637 5641 5644 5647 5650 5654 5658 5661 5665 5667 5669 5671 5672 5674 5675 5676 5677 5678 5677 5676 5674 5672
5522 5521 5521 5520 5521 5521 5522 5525 5532 5544 5558 5571 5585 5595 5603 5610 5615 5619 5621 5625 5629 5633 5637 5640 5643 5647 5650 5654 5658 5661 5663 5664 5666 5669 5670 5672 5673 5674 5673 5672 5671 5670 5668
5506 5506 5505 5504 5504 5504 5504 5507 5514 5527 5543 5557 5571 5584 5595 5602 5607 5612 5617 5621 5625 5630 5634 5637 5640 5643 5647 5651 5655 5657 5658 5661 5663 5666 5667 5668 5669 5669 5669 5668 5666 5664 5662
5490 5491 5490 5490 5490 5490 5491 5495 5505 5519 5534 5549 5562 5575 5586 5594 5601 5607 5612 5617 5622 5627 5631 5634 5637 5640 5644 5647 5650 5653 5655 5657 5660 5662 5663 5664 5664 5665 5664 5663 5662 5660 5658
5474 5476 5478 5479 5481 5482 5484 5491 5502 5515 5528 5543 5557 5569 5579 5587 5595 5602 5608 5614 5619 5624 5628 5631 5634 5638 5641 5644 5647 5649 5651 5654 5656 5657 5658 5659 5659 5660 5660 5659 5657 5656 5654
5459 5464 5467 5471 5474 5477 5483 5492 5501 5513 5525 5539 5553 5565 5574 5581 5589 5597 5604 5610 5615 5620 5624 5628 5631 5634 5637 5640 5643 5646 5648 5650 5651 5652 5653 5653 5654 5654 5654 5653 5653 5651 5650
5448 5454 5459 5464 5469 5475 5483 5492 5502 5513 5525 5538 5551 5562 5571 5579 5586 5594 5601 5607 5613 5617 5621 5624 5627 5631 5634 5637 5639 5642 5644 5646 5647 5647 5648 5648 5648 5648 5648 5648 5647 5646 5645
5440 5447 5453 5460 5466 5474 5484 5494 5503 5514 5526 5538 5550 5560 5570 5578 5585 5592 5599 5605 5610 5615 5619 5622 5625 5628 5631 5633 5635 5637 5639 5640 5642 5642 5643 5643 5642 5642 5642 5641 5641 5640 5639
5436 5443 5450 5457 5466 5475 5485 5495 5506 5516 5528 5539 5549 5558 5567 5575 5583 5590 5596 5603 5608 5613 5617 5620 5623 5625 5627 5629 5631 5633 5634 5635 5636 5637 5637 5637 5636 5636 5635 5635 5634 5633 5633
5435 5442 5450 5458 5467 5478 5488 5498 5508 5519 5529 5539 5549 5558 5566 5574 5582 5588 5595 5601 5606 5611 5615 5618 5620 5622 5623 5625 5627 5628 5629 5630 5630 5630 5631 5631 5630 5630 5629 5628 5627 5627 5626
5436 5444 5453 5462 5473 5483 5494 5503 5512 5522 5532 5542 5551 5559 5567 5574 5581 5587 5593 5599 5604 5608 5611 5614 5616 5618 5620 5621 5622 5623 5624 5625 5625 5625 5625 5625 5624 5624 5623 5622 5621 5620 5619
5441 5449 5459 5470 5481 5491 5500 5509 5518 5527 5536 5545 5553 5561 5568 5574 5581 5586 5592 5597 5601 5605 5608 5610 5612 5613 5615 5616 5617 5618 5619 5620 5620 5620 5619 5619 5618 5618 5617 5616 5615 5614 5612
5449 5459 5469 5480 5490 5499 5507 5515 5524 5532 5540 5549 5556 5562 5569 5575 5580 5585 5590 5594 5598 5601 5604 5605 5607 5609 5611 5612 5613 5613 5614 5615 5615 5614 5614 5613 5612 5611 5610 5609 5608 5607 5606